Data supplied by UK-AIR on 22/3/2019
All Data GMT hour ending 
Status: R =Ratified P=Provisional,P*=As supplied
,,Oldbury Birmingham Road,,,,,,,,,,,,,,,,,,,,,,,
Date,time,"Nitric oxide",status,unit,"Nitrogen dioxide",status,unit,"Nitrogen oxides as nitrogen dioxide",status,unit
 
01-01-2018,01:00,4.74378,R,ugm-3,11.51889,R,ugm-3,18.79258,R,ugm-3
01-01-2018,02:00,4.11408,R,ugm-3,10.67996,R,ugm-3,16.98811,R,ugm-3
01-01-2018,03:00,1.73169,R,ugm-3,5.74506,R,ugm-3,8.40029,R,ugm-3
01-01-2018,04:00,1.70021,R,ugm-3,4.52917,R,ugm-3,7.13611,R,ugm-3
01-01-2018,05:00,1.88912,R,ugm-3,4.69699,R,ugm-3,7.59360,R,ugm-3
01-01-2018,06:00,1.32238,R,ugm-3,3.81617,R,ugm-3,5.84380,R,ugm-3
01-01-2018,07:00,2.73922,R,ugm-3,7.08736,R,ugm-3,11.28743,R,ugm-3
01-01-2018,08:00,3.36892,R,ugm-3,8.97446,R,ugm-3,14.14007,R,ugm-3
01-01-2018,09:00,8.53251,R,ugm-3,14.80555,R,ugm-3,27.88854,R,ugm-3
01-01-2018,10:00,7.55646,R,ugm-3,16.23044,R,ugm-3,27.81686,R,ugm-3
01-01-2018,11:00,10.07529,R,ugm-3,17.44791,R,ugm-3,32.89647,R,ugm-3
01-01-2018,12:00,15.93155,R,ugm-3,23.82448,R,ugm-3,48.25251,R,ugm-3
01-01-2018,13:00,24.62148,R,ugm-3,27.64531,R,ugm-3,65.39772,R,ugm-3
01-01-2018,14:00,15.20739,R,ugm-3,19.21208,R,ugm-3,42.52974,R,ugm-3
01-01-2018,15:00,16.27788,R,ugm-3,24.91480,R,ugm-3,49.87387,R,ugm-3
01-01-2018,16:00,15.23887,R,ugm-3,24.91414,R,ugm-3,48.28008,R,ugm-3
01-01-2018,17:00,11.61806,R,ugm-3,18.49705,R,ugm-3,36.31117,R,ugm-3
01-01-2018,18:00,11.96440,R,ugm-3,16.35901,R,ugm-3,34.70417,R,ugm-3
01-01-2018,19:00,3.36892,R,ugm-3,10.23227,R,ugm-3,15.39788,R,ugm-3
01-01-2018,20:00,1.98357,R,ugm-3,7.25459,R,ugm-3,10.29602,R,ugm-3
01-01-2018,21:00,2.83368,R,ugm-3,8.34522,R,ugm-3,12.69013,R,ugm-3
01-01-2018,22:00,3.14853,R,ugm-3,11.28029,R,ugm-3,16.10797,R,ugm-3
01-01-2018,23:00,4.69131,R,ugm-3,11.91017,R,ugm-3,19.10341,R,ugm-3
01-01-2018,24:00,5.16358,R,ugm-3,10.14954,R,ugm-3,18.06693,R,ugm-3
02-01-2018,01:00,4.66338,R,ugm-3,10.18415,R,ugm-3,17.33456,R,ugm-3
02-01-2018,02:00,1.80653,R,ugm-3,12.75588,R,ugm-3,15.52586,R,ugm-3
02-01-2018,03:00,2.11112,R,ugm-3,10.57430,R,ugm-3,13.81131,R,ugm-3
02-01-2018,04:00,1.85905,R,ugm-3,8.93784,R,ugm-3,11.78835,R,ugm-3
02-01-2018,05:00,5.73469,R,ugm-3,18.04466,R,ugm-3,26.83773,R,ugm-3
02-01-2018,06:00,30.94214,R,ugm-3,40.54778,R,ugm-3,87.99173,R,ugm-3
02-01-2018,07:00,52.99866,R,ugm-3,53.48297,R,ugm-3,134.74644,R,ugm-3
02-01-2018,08:00,57.91411,R,ugm-3,50.33900,R,ugm-3,139.13939,R,ugm-3
02-01-2018,09:00,74.36197,R,ugm-3,46.02678,R,ugm-3,160.04688,R,ugm-3
02-01-2018,10:00,65.19276,R,ugm-3,45.51810,R,ugm-3,145.47894,R,ugm-3
02-01-2018,11:00,57.59902,R,ugm-3,44.38096,R,ugm-3,132.69822,R,ugm-3
02-01-2018,12:00,56.27562,R,ugm-3,38.71605,R,ugm-3,125.00414,R,ugm-3
02-01-2018,13:00,44.74322,R,ugm-3,35.35297,R,ugm-3,103.95828,R,ugm-3
02-01-2018,14:00,34.75477,R,ugm-3,36.14448,R,ugm-3,89.43438,R,ugm-3
02-01-2018,15:00,39.63871,R,ugm-3,46.21687,R,ugm-3,106.99538,R,ugm-3
02-01-2018,16:00,56.84279,R,ugm-3,63.80651,R,ugm-3,150.96424,R,ugm-3
02-01-2018,17:00,59.83618,R,ugm-3,63.59843,R,ugm-3,155.34595,R,ugm-3
02-01-2018,18:00,21.96199,R,ugm-3,28.20740,R,ugm-3,61.88198,R,ugm-3
02-01-2018,19:00,33.96703,R,ugm-3,41.51450,R,ugm-3,93.59656,R,ugm-3
02-01-2018,20:00,14.17919,R,ugm-3,19.05641,R,ugm-3,40.79753,R,ugm-3
02-01-2018,21:00,15.88069,R,ugm-3,16.95954,R,ugm-3,41.30959,R,ugm-3
02-01-2018,22:00,8.57053,R,ugm-3,10.91362,R,ugm-3,24.05492,R,ugm-3
02-01-2018,23:00,5.35658,R,ugm-3,8.89787,R,ugm-3,17.11118,R,ugm-3
02-01-2018,24:00,5.13602,R,ugm-3,8.43622,R,ugm-3,16.31134,R,ugm-3
03-01-2018,01:00,,,,,,,,,
03-01-2018,02:00,5.76009,R,ugm-3,6.55283,R,ugm-3,15.38484,R,ugm-3
03-01-2018,03:00,5.70754,R,ugm-3,6.21690,R,ugm-3,14.96834,R,ugm-3
03-01-2018,04:00,8.16714,R,ugm-3,7.01589,R,ugm-3,19.53866,R,ugm-3
03-01-2018,05:00,5.13994,R,ugm-3,7.64417,R,ugm-3,15.52529,R,ugm-3
03-01-2018,06:00,9.86994,R,ugm-3,9.61992,R,ugm-3,24.75362,R,ugm-3
03-01-2018,07:00,13.81161,R,ugm-3,18.64905,R,ugm-3,39.82655,R,ugm-3
03-01-2018,08:00,22.67248,R,ugm-3,25.49734,R,ugm-3,60.26132,R,ugm-3
03-01-2018,09:00,21.22194,R,ugm-3,26.54628,R,ugm-3,59.08614,R,ugm-3
03-01-2018,10:00,21.44268,R,ugm-3,24.06917,R,ugm-3,56.94749,R,ugm-3
03-01-2018,11:00,19.48761,R,ugm-3,23.77428,R,ugm-3,53.65487,R,ugm-3
03-01-2018,12:00,23.39775,R,ugm-3,25.66565,R,ugm-3,61.54169,R,ugm-3
03-01-2018,13:00,25.16361,R,ugm-3,24.49091,R,ugm-3,63.07458,R,ugm-3
03-01-2018,14:00,26.33035,R,ugm-3,27.30461,R,ugm-3,67.67724,R,ugm-3
03-01-2018,15:00,33.67762,R,ugm-3,36.12552,R,ugm-3,87.76381,R,ugm-3
03-01-2018,16:00,35.00202,R,ugm-3,34.74062,R,ugm-3,88.40963,R,ugm-3
03-01-2018,17:00,35.41195,R,ugm-3,34.11102,R,ugm-3,88.40859,R,ugm-3
03-01-2018,18:00,20.62281,R,ugm-3,27.00783,R,ugm-3,58.62903,R,ugm-3
03-01-2018,19:00,17.37488,R,ugm-3,21.42197,R,ugm-3,48.06307,R,ugm-3
03-01-2018,20:00,13.62241,R,ugm-3,20.79028,R,ugm-3,41.67768,R,ugm-3
03-01-2018,21:00,18.60468,R,ugm-3,23.43795,R,ugm-3,51.96472,R,ugm-3
03-01-2018,22:00,17.59561,R,ugm-3,20.49837,R,ugm-3,47.47793,R,ugm-3
03-01-2018,23:00,12.64487,R,ugm-3,16.84303,R,ugm-3,36.23157,R,ugm-3
03-01-2018,24:00,8.51400,R,ugm-3,15.07752,R,ugm-3,28.13214,R,ugm-3
04-01-2018,01:00,10.26667,R,ugm-3,16.02687,R,ugm-3,31.76888,R,ugm-3
04-01-2018,02:00,13.25410,R,ugm-3,13.84331,R,ugm-3,34.16598,R,ugm-3
04-01-2018,03:00,6.87951,R,ugm-3,11.09542,R,ugm-3,21.64386,R,ugm-3
04-01-2018,04:00,15.43156,R,ugm-3,15.93109,R,ugm-3,39.59249,R,ugm-3
04-01-2018,05:00,13.60124,R,ugm-3,21.01431,R,ugm-3,41.86925,R,ugm-3
04-01-2018,06:00,47.96723,R,ugm-3,39.81083,R,ugm-3,113.35956,R,ugm-3
04-01-2018,07:00,76.84224,R,ugm-3,60.24360,R,ugm-3,178.06673,R,ugm-3
04-01-2018,08:00,85.29962,R,ugm-3,64.86914,R,ugm-3,195.66007,R,ugm-3
04-01-2018,09:00,104.92832,R,ugm-3,62.27270,R,ugm-3,223.16055,R,ugm-3
04-01-2018,10:00,77.41028,R,ugm-3,54.94974,R,ugm-3,173.64384,R,ugm-3
04-01-2018,11:00,55.38322,R,ugm-3,45.78045,R,ugm-3,130.70020,R,ugm-3
04-01-2018,12:00,,,,,,,,,
04-01-2018,13:00,,,,,,,,,
04-01-2018,14:00,28.62255,R,ugm-3,33.79397,R,ugm-3,77.68127,R,ugm-3
04-01-2018,15:00,22.37419,R,ugm-3,26.43831,R,ugm-3,60.74492,R,ugm-3
04-01-2018,16:00,26.50821,R,ugm-3,29.46532,R,ugm-3,70.11067,R,ugm-3
04-01-2018,17:00,23.95206,R,ugm-3,32.44739,R,ugm-3,69.17337,R,ugm-3
04-01-2018,18:00,27.86518,R,ugm-3,38.58354,R,ugm-3,81.30955,R,ugm-3
04-01-2018,19:00,30.48444,R,ugm-3,36.60990,R,ugm-3,83.35206,R,ugm-3
04-01-2018,20:00,20.95411,R,ugm-3,33.41246,R,ugm-3,65.54164,R,ugm-3
04-01-2018,21:00,19.25001,R,ugm-3,31.26886,R,ugm-3,60.78513,R,ugm-3
04-01-2018,22:00,23.19468,R,ugm-3,29.25379,R,ugm-3,64.81847,R,ugm-3
04-01-2018,23:00,30.07419,R,ugm-3,37.66014,R,ugm-3,83.77326,R,ugm-3
04-01-2018,24:00,19.84960,R,ugm-3,28.36997,R,ugm-3,58.80560,R,ugm-3
05-01-2018,01:00,14.06426,R,ugm-3,23.66352,R,ugm-3,45.22842,R,ugm-3
05-01-2018,02:00,11.66408,R,ugm-3,16.48666,R,ugm-3,34.37132,R,ugm-3
05-01-2018,03:00,9.63234,R,ugm-3,13.29035,R,ugm-3,28.05973,R,ugm-3
05-01-2018,04:00,17.55928,R,ugm-3,21.15604,R,ugm-3,48.07989,R,ugm-3
05-01-2018,05:00,22.99128,R,ugm-3,30.95495,R,ugm-3,66.20775,R,ugm-3
05-01-2018,06:00,25.92835,R,ugm-3,28.09687,R,ugm-3,67.85312,R,ugm-3
05-01-2018,07:00,52.07778,R,ugm-3,46.52309,R,ugm-3,126.37456,R,ugm-3
05-01-2018,08:00,83.56446,R,ugm-3,57.88745,R,ugm-3,186.01784,R,ugm-3
05-01-2018,09:00,99.79732,R,ugm-3,65.50397,R,ugm-3,218.52438,R,ugm-3
05-01-2018,10:00,47.90903,R,ugm-3,43.57826,R,ugm-3,117.03775,R,ugm-3
05-01-2018,11:00,57.95192,R,ugm-3,47.82873,R,ugm-3,136.68710,R,ugm-3
05-01-2018,12:00,49.17229,R,ugm-3,43.95715,R,ugm-3,119.35361,R,ugm-3
05-01-2018,13:00,34.64483,R,ugm-3,42.01758,R,ugm-3,95.13891,R,ugm-3
05-01-2018,14:00,45.44568,R,ugm-3,47.65587,R,ugm-3,117.33827,R,ugm-3
05-01-2018,15:00,47.11949,R,ugm-3,51.86116,R,ugm-3,124.11004,R,ugm-3
05-01-2018,16:00,85.26986,R,ugm-3,70.20777,R,ugm-3,200.95306,R,ugm-3
05-01-2018,17:00,168.04479,R,ugm-3,90.12677,R,ugm-3,347.79185,R,ugm-3
05-01-2018,18:00,217.50130,R,ugm-3,95.69541,R,ugm-3,429.19276,R,ugm-3
05-01-2018,19:00,133.55786,R,ugm-3,84.10121,R,ugm-3,288.88708,R,ugm-3
05-01-2018,20:00,132.79991,R,ugm-3,80.90538,R,ugm-3,284.52907,R,ugm-3
05-01-2018,21:00,140.97950,R,ugm-3,81.24481,R,ugm-3,297.41036,R,ugm-3
05-01-2018,22:00,162.73911,R,ugm-3,80.28587,R,ugm-3,329.81568,R,ugm-3
05-01-2018,23:00,144.35871,R,ugm-3,81.33017,R,ugm-3,302.67711,R,ugm-3
05-01-2018,24:00,153.23310,R,ugm-3,80.07208,R,ugm-3,315.02622,R,ugm-3
06-01-2018,01:00,220.31120,R,ugm-3,81.07972,R,ugm-3,418.88551,R,ugm-3
06-01-2018,02:00,197.26027,R,ugm-3,71.64742,R,ugm-3,374.10896,R,ugm-3
06-01-2018,03:00,257.30013,R,ugm-3,72.24104,R,ugm-3,466.76240,R,ugm-3
06-01-2018,04:00,254.13958,R,ugm-3,73.67067,R,ugm-3,463.34593,R,ugm-3
06-01-2018,05:00,204.80344,R,ugm-3,67.34391,R,ugm-3,381.37148,R,ugm-3
06-01-2018,06:00,62.89489,R,ugm-3,49.03876,R,ugm-3,145.47623,R,ugm-3
06-01-2018,07:00,48.76724,R,ugm-3,44.49011,R,ugm-3,119.26550,R,ugm-3
06-01-2018,08:00,54.51944,R,ugm-3,46.17495,R,ugm-3,129.77025,R,ugm-3
06-01-2018,09:00,25.06314,R,ugm-3,39.26527,R,ugm-3,77.69488,R,ugm-3
06-01-2018,10:00,17.00374,R,ugm-3,34.88681,R,ugm-3,60.95885,R,ugm-3
06-01-2018,11:00,9.48164,R,ugm-3,24.02870,R,ugm-3,38.56702,R,ugm-3
06-01-2018,12:00,11.69402,R,ugm-3,25.83868,R,ugm-3,43.76927,R,ugm-3
06-01-2018,13:00,16.87732,R,ugm-3,29.41680,R,ugm-3,55.29500,R,ugm-3
06-01-2018,14:00,15.07581,R,ugm-3,30.72062,R,ugm-3,53.83654,R,ugm-3
06-01-2018,15:00,10.65104,R,ugm-3,24.87060,R,ugm-3,41.20197,R,ugm-3
06-01-2018,16:00,8.50187,R,ugm-3,25.87977,R,ugm-3,38.91579,R,ugm-3
06-01-2018,17:00,6.63715,R,ugm-3,30.46555,R,ugm-3,40.64237,R,ugm-3
06-01-2018,18:00,6.41591,R,ugm-3,32.10647,R,ugm-3,41.94406,R,ugm-3
06-01-2018,19:00,3.47660,R,ugm-3,25.96237,R,ugm-3,31.29309,R,ugm-3
06-01-2018,20:00,3.31857,R,ugm-3,27.43501,R,ugm-3,32.52342,R,ugm-3
06-01-2018,21:00,2.27559,R,ugm-3,20.99696,R,ugm-3,24.48615,R,ugm-3
06-01-2018,22:00,1.73830,R,ugm-3,22.25909,R,ugm-3,24.92445,R,ugm-3
06-01-2018,23:00,1.29582,R,ugm-3,19.73435,R,ugm-3,21.72126,R,ugm-3
06-01-2018,24:00,1.01138,R,ugm-3,17.88289,R,ugm-3,19.43365,R,ugm-3
07-01-2018,01:00,0.75911,R,ugm-3,14.87786,R,ugm-3,16.04181,R,ugm-3
07-01-2018,02:00,1.64474,R,ugm-3,16.67463,R,ugm-3,19.19652,R,ugm-3
07-01-2018,03:00,0.41118,R,ugm-3,12.12681,R,ugm-3,12.75728,R,ugm-3
07-01-2018,04:00,0.31630,R,ugm-3,10.52674,R,ugm-3,11.01171,R,ugm-3
07-01-2018,05:00,0.34792,R,ugm-3,9.38986,R,ugm-3,9.92334,R,ugm-3
07-01-2018,06:00,0.50607,R,ugm-3,10.82153,R,ugm-3,11.59749,R,ugm-3
07-01-2018,07:00,1.42333,R,ugm-3,14.35871,R,ugm-3,16.54112,R,ugm-3
07-01-2018,08:00,1.58148,R,ugm-3,17.85360,R,ugm-3,20.27849,R,ugm-3
07-01-2018,09:00,2.08755,R,ugm-3,16.59052,R,ugm-3,19.79139,R,ugm-3
07-01-2018,10:00,3.44762,R,ugm-3,17.98037,R,ugm-3,23.26665,R,ugm-3
07-01-2018,11:00,6.10450,R,ugm-3,19.37054,R,ugm-3,28.73064,R,ugm-3
07-01-2018,12:00,6.51568,R,ugm-3,15.83369,R,ugm-3,25.82426,R,ugm-3
07-01-2018,13:00,6.04124,R,ugm-3,12.75979,R,ugm-3,22.02289,R,ugm-3
07-01-2018,14:00,4.64954,R,ugm-3,11.58046,R,ugm-3,18.70966,R,ugm-3
07-01-2018,15:00,4.17510,R,ugm-3,11.28560,R,ugm-3,17.68732,R,ugm-3
07-01-2018,16:00,3.63739,R,ugm-3,14.35925,R,ugm-3,19.93651,R,ugm-3
07-01-2018,17:00,2.53036,R,ugm-3,17.72751,R,ugm-3,21.60734,R,ugm-3
07-01-2018,18:00,2.46710,R,ugm-3,18.31699,R,ugm-3,22.09983,R,ugm-3
07-01-2018,19:00,2.15081,R,ugm-3,17.93795,R,ugm-3,21.23581,R,ugm-3
07-01-2018,20:00,3.63739,R,ugm-3,17.72778,R,ugm-3,23.30504,R,ugm-3
07-01-2018,21:00,2.18244,R,ugm-3,15.66420,R,ugm-3,19.01056,R,ugm-3
07-01-2018,22:00,1.45496,R,ugm-3,14.48504,R,ugm-3,16.71594,R,ugm-3
07-01-2018,23:00,1.96103,R,ugm-3,15.41151,R,ugm-3,18.41838,R,ugm-3
07-01-2018,24:00,1.32844,R,ugm-3,12.21125,R,ugm-3,14.24816,R,ugm-3
08-01-2018,01:00,1.01291,R,ugm-3,9.49496,R,ugm-3,11.04808,R,ugm-3
08-01-2018,02:00,0.37984,R,ugm-3,9.04539,R,ugm-3,9.62781,R,ugm-3
08-01-2018,03:00,0.50646,R,ugm-3,8.55382,R,ugm-3,9.33038,R,ugm-3
08-01-2018,04:00,0.72803,R,ugm-3,9.01737,R,ugm-3,10.13366,R,ugm-3
08-01-2018,05:00,2.24740,R,ugm-3,11.84079,R,ugm-3,15.28676,R,ugm-3
08-01-2018,06:00,5.12788,R,ugm-3,21.61701,R,ugm-3,29.47964,R,ugm-3
08-01-2018,07:00,12.12331,R,ugm-3,35.69190,R,ugm-3,54.28071,R,ugm-3
08-01-2018,08:00,24.37323,R,ugm-3,47.74518,R,ugm-3,85.11695,R,ugm-3
08-01-2018,09:00,26.49402,R,ugm-3,53.47614,R,ugm-3,94.09974,R,ugm-3
08-01-2018,10:00,50.74064,R,ugm-3,59.04256,R,ugm-3,136.84379,R,ugm-3
08-01-2018,11:00,28.99465,R,ugm-3,51.83327,R,ugm-3,96.29111,R,ugm-3
08-01-2018,12:00,25.98757,R,ugm-3,47.15556,R,ugm-3,87.00260,R,ugm-3
08-01-2018,13:00,37.66773,R,ugm-3,48.67459,R,ugm-3,106.43096,R,ugm-3
08-01-2018,14:00,34.62898,R,ugm-3,44.20756,R,ugm-3,97.30460,R,ugm-3
08-01-2018,15:00,35.86347,R,ugm-3,48.63213,R,ugm-3,103.62202,R,ugm-3
08-01-2018,16:00,35.76851,R,ugm-3,47.03092,R,ugm-3,101.87521,R,ugm-3
08-01-2018,17:00,65.45954,R,ugm-3,49.94372,R,ugm-3,150.31362,R,ugm-3
08-01-2018,18:00,50.39245,R,ugm-3,47.20211,R,ugm-3,124.46946,R,ugm-3
08-01-2018,19:00,43.61859,R,ugm-3,43.57714,R,ugm-3,110.45805,R,ugm-3
08-01-2018,20:00,33.26788,R,ugm-3,40.03579,R,ugm-3,91.04583,R,ugm-3
08-01-2018,21:00,40.13670,R,ugm-3,37.21388,R,ugm-3,98.75597,R,ugm-3
08-01-2018,22:00,21.71434,R,ugm-3,26.84494,R,ugm-3,60.13979,R,ugm-3
08-01-2018,23:00,19.59355,R,ugm-3,27.30806,R,ugm-3,57.35108,R,ugm-3
08-01-2018,24:00,19.91008,R,ugm-3,24.99061,R,ugm-3,55.51898,R,ugm-3
09-01-2018,01:00,11.53064,R,ugm-3,23.95196,R,ugm-3,41.63204,R,ugm-3
09-01-2018,02:00,13.47354,R,ugm-3,23.83975,R,ugm-3,44.49888,R,ugm-3
09-01-2018,03:00,12.03749,R,ugm-3,23.61469,R,ugm-3,42.07191,R,ugm-3
09-01-2018,04:00,14.47666,R,ugm-3,22.64514,R,ugm-3,44.84238,R,ugm-3
09-01-2018,05:00,15.96551,R,ugm-3,23.06698,R,ugm-3,47.54709,R,ugm-3
09-01-2018,06:00,35.19380,R,ugm-3,30.61705,R,ugm-3,84.58013,R,ugm-3
09-01-2018,07:00,57.96999,R,ugm-3,30.74621,R,ugm-3,119.63229,R,ugm-3
09-01-2018,08:00,88.60222,R,ugm-3,40.44810,R,ugm-3,176.30295,R,ugm-3
09-01-2018,09:00,134.66144,R,ugm-3,46.52547,R,ugm-3,253.00347,R,ugm-3
09-01-2018,10:00,144.19640,R,ugm-3,52.97808,R,ugm-3,274.07613,R,ugm-3
09-01-2018,11:00,139.03295,R,ugm-3,51.16431,R,ugm-3,264.34519,R,ugm-3
09-01-2018,12:00,140.71186,R,ugm-3,48.67668,R,ugm-3,264.43185,R,ugm-3
09-01-2018,13:00,107.67213,R,ugm-3,45.72115,R,ugm-3,210.81612,R,ugm-3
09-01-2018,14:00,117.08038,R,ugm-3,45.30059,R,ugm-3,224.82133,R,ugm-3
09-01-2018,15:00,111.18835,R,ugm-3,46.64923,R,ugm-3,217.13565,R,ugm-3
09-01-2018,16:00,113.27907,R,ugm-3,46.43864,R,ugm-3,220.13079,R,ugm-3
09-01-2018,17:00,105.45470,R,ugm-3,49.05205,R,ugm-3,210.74701,R,ugm-3
09-01-2018,18:00,110.61815,R,ugm-3,48.12499,R,ugm-3,217.73712,R,ugm-3
09-01-2018,19:00,73.17524,R,ugm-3,43.98829,R,ugm-3,156.18876,R,ugm-3
09-01-2018,20:00,58.66690,R,ugm-3,41.66744,R,ugm-3,131.62209,R,ugm-3
09-01-2018,21:00,47.16793,R,ugm-3,38.96743,R,ugm-3,111.29059,R,ugm-3
09-01-2018,22:00,39.18518,R,ugm-3,34.07517,R,ugm-3,94.15828,R,ugm-3
09-01-2018,23:00,29.71358,R,ugm-3,29.18274,R,ugm-3,74.74293,R,ugm-3
09-01-2018,24:00,23.66316,R,ugm-3,25.17621,R,ugm-3,61.45922,R,ugm-3
10-01-2018,01:00,24.64274,R,ugm-3,25.20671,R,ugm-3,62.99171,R,ugm-3
10-01-2018,02:00,21.68392,R,ugm-3,20.03044,R,ugm-3,53.27865,R,ugm-3
10-01-2018,03:00,27.39021,R,ugm-3,22.57661,R,ugm-3,64.57434,R,ugm-3
10-01-2018,04:00,81.79021,R,ugm-3,36.88412,R,ugm-3,162.29402,R,ugm-3
10-01-2018,05:00,27.80233,R,ugm-3,34.05409,R,ugm-3,76.68373,R,ugm-3
10-01-2018,06:00,61.75478,R,ugm-3,42.11543,R,ugm-3,136.80477,R,ugm-3
10-01-2018,07:00,111.58974,R,ugm-3,48.61634,R,ugm-3,219.71822,R,ugm-3
10-01-2018,08:00,105.43963,R,ugm-3,56.42237,R,ugm-3,218.09421,R,ugm-3
10-01-2018,09:00,244.00746,R,ugm-3,80.22856,R,ugm-3,454.36812,R,ugm-3
10-01-2018,10:00,246.60699,R,ugm-3,87.82408,R,ugm-3,465.94953,R,ugm-3
10-01-2018,11:00,,,,,,,,,
10-01-2018,12:00,,,,,,,,,
10-01-2018,13:00,,,,,,,,,
10-01-2018,14:00,80.61725,R,ugm-3,61.99100,R,ugm-3,185.60239,R,ugm-3
10-01-2018,15:00,93.71002,R,ugm-3,67.85702,R,ugm-3,211.54371,R,ugm-3
10-01-2018,16:00,155.43310,R,ugm-3,75.70884,R,ugm-3,314.03627,R,ugm-3
10-01-2018,17:00,253.77156,R,ugm-3,98.58458,R,ugm-3,487.69555,R,ugm-3
10-01-2018,18:00,321.32774,R,ugm-3,112.76620,R,ugm-3,605.46186,R,ugm-3
10-01-2018,19:00,489.60000,R,ugm-3,133.36703,R,ugm-3,884.07656,R,ugm-3
10-01-2018,20:00,267.81538,R,ugm-3,99.17608,R,ugm-3,509.82060,R,ugm-3
10-01-2018,21:00,255.22984,R,ugm-3,85.03957,R,ugm-3,476.38652,R,ugm-3
10-01-2018,22:00,335.62517,R,ugm-3,92.97678,R,ugm-3,607.59486,R,ugm-3
10-01-2018,23:00,349.25688,R,ugm-3,87.06998,R,ugm-3,622.58972,R,ugm-3
10-01-2018,24:00,247.49464,R,ugm-3,78.11892,R,ugm-3,457.60541,R,ugm-3
11-01-2018,01:00,120.91422,R,ugm-3,61.42220,R,ugm-3,246.82142,R,ugm-3
11-01-2018,02:00,78.25602,R,ugm-3,53.15111,R,ugm-3,173.14200,R,ugm-3
11-01-2018,03:00,23.02021,R,ugm-3,46.82032,R,ugm-3,82.11748,R,ugm-3
11-01-2018,04:00,37.63772,R,ugm-3,46.88758,R,ugm-3,104.59795,R,ugm-3
11-01-2018,05:00,24.25683,R,ugm-3,44.87921,R,ugm-3,82.07249,R,ugm-3
11-01-2018,06:00,27.96670,R,ugm-3,43.18821,R,ugm-3,86.06988,R,ugm-3
11-01-2018,07:00,48.13316,R,ugm-3,45.10433,R,ugm-3,118.90748,R,ugm-3
11-01-2018,08:00,46.04042,R,ugm-3,45.35977,R,ugm-3,115.95409,R,ugm-3
11-01-2018,09:00,58.62860,R,ugm-3,49.30874,R,ugm-3,139.20468,R,ugm-3
11-01-2018,10:00,72.61195,R,ugm-3,49.67192,R,ugm-3,161.00869,R,ugm-3
11-01-2018,11:00,52.54061,R,ugm-3,46.61718,R,ugm-3,127.17833,R,ugm-3
11-01-2018,12:00,40.68172,R,ugm-3,44.48053,R,ugm-3,106.85829,R,ugm-3
11-01-2018,13:00,51.08203,R,ugm-3,45.85989,R,ugm-3,124.18457,R,ugm-3
11-01-2018,14:00,70.26554,R,ugm-3,54.31299,R,ugm-3,162.05198,R,ugm-3
11-01-2018,15:00,53.49186,R,ugm-3,50.62191,R,ugm-3,132.64162,R,ugm-3
11-01-2018,16:00,63.98730,R,ugm-3,53.68782,R,ugm-3,151.80031,R,ugm-3
11-01-2018,17:00,63.60680,R,ugm-3,57.10377,R,ugm-3,154.63283,R,ugm-3
11-01-2018,18:00,34.97423,R,ugm-3,52.03503,R,ugm-3,105.66143,R,ugm-3
11-01-2018,19:00,60.05547,R,ugm-3,55.54775,R,ugm-3,147.63152,R,ugm-3
11-01-2018,20:00,39.50851,R,ugm-3,53.67424,R,ugm-3,114.25311,R,ugm-3
11-01-2018,21:00,42.33055,R,ugm-3,51.81561,R,ugm-3,116.72154,R,ugm-3
11-01-2018,22:00,46.38921,R,ugm-3,50.54587,R,ugm-3,121.67499,R,ugm-3
11-01-2018,23:00,33.51565,R,ugm-3,47.10323,R,ugm-3,98.49317,R,ugm-3
11-01-2018,24:00,24.28854,R,ugm-3,42.85517,R,ugm-3,80.09707,R,ugm-3
12-01-2018,01:00,,,,,,,,,
12-01-2018,02:00,72.35230,R,ugm-3,44.37993,R,ugm-3,155.31858,R,ugm-3
12-01-2018,03:00,54.96195,R,ugm-3,42.51125,R,ugm-3,126.78507,R,ugm-3
12-01-2018,04:00,98.18939,R,ugm-3,41.50912,R,ugm-3,192.06408,R,ugm-3
12-01-2018,05:00,44.84489,R,ugm-3,38.40600,R,ugm-3,107.16721,R,ugm-3
12-01-2018,06:00,48.11153,R,ugm-3,37.97683,R,ugm-3,111.74681,R,ugm-3
12-01-2018,07:00,131.83891,R,ugm-3,52.14558,R,ugm-3,254.29577,R,ugm-3
12-01-2018,08:00,187.97432,R,ugm-3,61.23952,R,ugm-3,349.46279,R,ugm-3
12-01-2018,09:00,202.59490,R,ugm-3,63.01650,R,ugm-3,373.65767,R,ugm-3
12-01-2018,10:00,130.12631,R,ugm-3,52.52890,R,ugm-3,252.05313,R,ugm-3
12-01-2018,11:00,123.08560,R,ugm-3,50.35460,R,ugm-3,239.08321,R,ugm-3
12-01-2018,12:00,129.17486,R,ugm-3,47.13766,R,ugm-3,245.20302,R,ugm-3
12-01-2018,13:00,142.52684,R,ugm-3,51.44588,R,ugm-3,269.98398,R,ugm-3
12-01-2018,14:00,116.26689,R,ugm-3,48.22190,R,ugm-3,226.49531,R,ugm-3
12-01-2018,15:00,125.90823,R,ugm-3,50.89564,R,ugm-3,243.95222,R,ugm-3
12-01-2018,16:00,113.38083,R,ugm-3,51.09410,R,ugm-3,224.94228,R,ugm-3
12-01-2018,17:00,101.01201,R,ugm-3,50.07021,R,ugm-3,204.95313,R,ugm-3
12-01-2018,18:00,98.34796,R,ugm-3,52.43623,R,ugm-3,203.23433,R,ugm-3
12-01-2018,19:00,75.86208,R,ugm-3,51.01513,R,ugm-3,167.33537,R,ugm-3
12-01-2018,20:00,46.27207,R,ugm-3,46.19790,R,ugm-3,117.14741,R,ugm-3
12-01-2018,21:00,30.22432,R,ugm-3,33.30021,R,ugm-3,79.64352,R,ugm-3
12-01-2018,22:00,22.61274,R,ugm-3,28.38837,R,ugm-3,63.06075,R,ugm-3
12-01-2018,23:00,17.79207,R,ugm-3,23.46987,R,ugm-3,50.75066,R,ugm-3
12-01-2018,24:00,15.63545,R,ugm-3,18.50288,R,ugm-3,42.47691,R,ugm-3
13-01-2018,01:00,11.25058,R,ugm-3,13.71436,R,ugm-3,30.96501,R,ugm-3
13-01-2018,02:00,7.44399,R,ugm-3,11.93153,R,ugm-3,23.34549,R,ugm-3
13-01-2018,03:00,7.61318,R,ugm-3,12.09935,R,ugm-3,23.77272,R,ugm-3
13-01-2018,04:00,8.50138,R,ugm-3,11.63297,R,ugm-3,24.66823,R,ugm-3
13-01-2018,05:00,7.16907,R,ugm-3,11.89041,R,ugm-3,22.88284,R,ugm-3
13-01-2018,06:00,10.84877,R,ugm-3,14.65620,R,ugm-3,31.29076,R,ugm-3
13-01-2018,07:00,17.60547,R,ugm-3,17.32668,R,ugm-3,44.32135,R,ugm-3
13-01-2018,08:00,16.93931,R,ugm-3,20.65553,R,ugm-3,46.62878,R,ugm-3
13-01-2018,09:00,26.04340,R,ugm-3,25.00182,R,ugm-3,64.93448,R,ugm-3
13-01-2018,10:00,28.42252,R,ugm-3,27.81440,R,ugm-3,71.39499,R,ugm-3
13-01-2018,11:00,36.60668,R,ugm-3,30.52183,R,ugm-3,86.65130,R,ugm-3
13-01-2018,12:00,36.98734,R,ugm-3,30.81521,R,ugm-3,87.52834,R,ugm-3
13-01-2018,13:00,42.12623,R,ugm-3,34.41787,R,ugm-3,99.01053,R,ugm-3
13-01-2018,14:00,44.25158,R,ugm-3,36.81031,R,ugm-3,104.66178,R,ugm-3
13-01-2018,15:00,60.68335,R,ugm-3,43.82501,R,ugm-3,136.87151,R,ugm-3
13-01-2018,16:00,39.23957,R,ugm-3,38.13370,R,ugm-3,98.30020,R,ugm-3
13-01-2018,17:00,45.33011,R,ugm-3,42.28032,R,ugm-3,111.78552,R,ugm-3
13-01-2018,18:00,38.19276,R,ugm-3,39.69544,R,ugm-3,98.25685,R,ugm-3
13-01-2018,19:00,36.19430,R,ugm-3,37.17623,R,ugm-3,92.67338,R,ugm-3
13-01-2018,20:00,24.29872,R,ugm-3,34.22954,R,ugm-3,71.48705,R,ugm-3
13-01-2018,21:00,21.19000,R,ugm-3,33.69336,R,ugm-3,66.18425,R,ugm-3
13-01-2018,22:00,19.44532,R,ugm-3,35.08918,R,ugm-3,64.90492,R,ugm-3
13-01-2018,23:00,17.60547,R,ugm-3,35.68532,R,ugm-3,62.67999,R,ugm-3
13-01-2018,24:00,11.99075,R,ugm-3,25.85254,R,ugm-3,44.23810,R,ugm-3
14-01-2018,01:00,11.21063,R,ugm-3,22.77975,R,ugm-3,39.96914,R,ugm-3
14-01-2018,02:00,4.10352,R,ugm-3,21.07486,R,ugm-3,27.36683,R,ugm-3
14-01-2018,03:00,3.80738,R,ugm-3,20.64149,R,ugm-3,26.47940,R,ugm-3
14-01-2018,04:00,3.55356,R,ugm-3,19.75910,R,ugm-3,25.20781,R,ugm-3
14-01-2018,05:00,3.71220,R,ugm-3,20.13702,R,ugm-3,25.82898,R,ugm-3
14-01-2018,06:00,8.24933,R,ugm-3,22.00860,R,ugm-3,34.65740,R,ugm-3
14-01-2018,07:00,8.75698,R,ugm-3,20.91214,R,ugm-3,34.33933,R,ugm-3
14-01-2018,08:00,9.29636,R,ugm-3,19.01607,R,ugm-3,33.27030,R,ugm-3
14-01-2018,09:00,15.16608,R,ugm-3,21.84899,R,ugm-3,45.10332,R,ugm-3
14-01-2018,10:00,25.03355,R,ugm-3,26.85062,R,ugm-3,65.23486,R,ugm-3
14-01-2018,11:00,34.17128,R,ugm-3,30.04646,R,ugm-3,82.44168,R,ugm-3
14-01-2018,12:00,25.47775,R,ugm-3,24.36593,R,ugm-3,63.43126,R,ugm-3
14-01-2018,13:00,36.89990,R,ugm-3,31.63222,R,ugm-3,88.21128,R,ugm-3
14-01-2018,14:00,45.59343,R,ugm-3,33.06296,R,ugm-3,102.97191,R,ugm-3
14-01-2018,15:00,33.50498,R,ugm-3,27.81959,R,ugm-3,79.19318,R,ugm-3
14-01-2018,16:00,38.01039,R,ugm-3,30.32247,R,ugm-3,88.60425,R,ugm-3
14-01-2018,17:00,18.59273,R,ugm-3,23.64177,R,ugm-3,52.15022,R,ugm-3
14-01-2018,18:00,29.34859,R,ugm-3,28.21834,R,ugm-3,73.21888,R,ugm-3
14-01-2018,19:00,31.06191,R,ugm-3,33.68010,R,ugm-3,81.30770,R,ugm-3
14-01-2018,20:00,17.60915,R,ugm-3,24.27767,R,ugm-3,51.27799,R,ugm-3
14-01-2018,21:00,8.02724,R,ugm-3,18.22273,R,ugm-3,30.53099,R,ugm-3
14-01-2018,22:00,8.02724,R,ugm-3,16.79211,R,ugm-3,29.10036,R,ugm-3
14-01-2018,23:00,6.02836,R,ugm-3,14.57167,R,ugm-3,23.81502,R,ugm-3
14-01-2018,24:00,5.36207,R,ugm-3,12.80764,R,ugm-3,21.02936,R,ugm-3
15-01-2018,01:00,4.61213,R,ugm-3,10.56803,R,ugm-3,17.63987,R,ugm-3
15-01-2018,02:00,1.05783,R,ugm-3,6.77723,R,ugm-3,8.39921,R,ugm-3
15-01-2018,03:00,0.92031,R,ugm-3,5.75491,R,ugm-3,7.16603,R,ugm-3
15-01-2018,04:00,1.23766,R,ugm-3,5.29047,R,ugm-3,7.18819,R,ugm-3
15-01-2018,05:00,2.24260,R,ugm-3,6.20944,R,ugm-3,9.64804,R,ugm-3
15-01-2018,06:00,11.20240,R,ugm-3,11.62143,R,ugm-3,28.79820,R,ugm-3
15-01-2018,07:00,18.02539,R,ugm-3,19.06460,R,ugm-3,46.70315,R,ugm-3
15-01-2018,08:00,31.44923,R,ugm-3,29.15889,R,ugm-3,77.38038,R,ugm-3
15-01-2018,09:00,42.58817,R,ugm-3,39.89771,R,ugm-3,105.19865,R,ugm-3
15-01-2018,10:00,39.12907,R,ugm-3,39.87657,R,ugm-3,99.87363,R,ugm-3
15-01-2018,11:00,40.84275,R,ugm-3,36.79676,R,ugm-3,99.42144,R,ugm-3
15-01-2018,12:00,40.39846,R,ugm-3,40.16323,R,ugm-3,102.10667,R,ugm-3
15-01-2018,13:00,36.78069,R,ugm-3,36.40084,R,ugm-3,92.79711,R,ugm-3
15-01-2018,14:00,36.39987,R,ugm-3,34.63716,R,ugm-3,90.44951,R,ugm-3
15-01-2018,15:00,40.20805,R,ugm-3,38.39839,R,ugm-3,100.04988,R,ugm-3
15-01-2018,16:00,43.38154,R,ugm-3,41.19638,R,ugm-3,107.71380,R,ugm-3